Overview Statistics Trail Chart Weather Telemetry Raw packets
 

This is the latest recevied weather packets stored in our database for station/object PE1RXF-13. If no packets are shown the sender has not sent any weather packets the latest 10 day(s).

<< 8 9 10 11 12 13 14 >>
Time Temp. Humidity Pressure Rain* Wind** Luminosity Snow
1788433984 21.67° C 99% 1012.3 hPa 0.25 mm - 104 W/m² -
1788432882 22.78° C 99% 1012.3 hPa 0 mm - 98 W/m² -
1788431779 20.56° C 99% 1012.5 hPa 0 mm - 122 W/m² -
1788430675 19.44° C 99% 1012.8 hPa 0 mm - 39 W/m² -
1788429572 21.67° C 99% 1012.6 hPa 0 mm - 65 W/m² -
1788428470 19.44° C 99% 1012.6 hPa 0 mm - 37 W/m² -
1788427367 19.44° C 99% 1012.8 hPa 0 mm - 45 W/m² -
1788426263 18.89° C 99% 1012.6 hPa 0 mm - 19 W/m² -
1788425161 18.89° C 99% 1012.7 hPa 0 mm - 32 W/m² -
1788424058 18.33° C 99% 1012.8 hPa 0 mm - 116 W/m² -
1788422955 18.33° C 99% 1012.8 hPa 0 mm - 50 W/m² -
1788421851 17.78° C 99% 1012.8 hPa 0 mm - 11 W/m² -
1788420748 18.33° C 99% 1012.7 hPa 0 mm - 26 W/m² -
1788419646 18.33° C 99% 1012.7 hPa 0 mm - 24 W/m² -
1788418542 17.78° C 99% 1012.5 hPa 0 mm - 14 W/m² -
1788417439 17.22° C 99% 1012.4 hPa 0 mm - 30 W/m² -
1788416337 16.67° C 99% 1012.8 hPa 0 mm - 9 W/m² -
1788415234 16.67° C 99% 1012.9 hPa 0 mm - 16 W/m² -
1788414130 17.22° C 99% 1013.1 hPa 0 mm - 7 W/m² -
1788413027 16.67° C 99% 1013.1 hPa 0 mm - 3 W/m² -
1788411925 16.67° C 99% 1012.8 hPa 0 mm - 1 W/m² -
1788410822 16.67° C 99% 1012.9 hPa 0 mm - 0 W/m² -
1788409718 16.67° C 99% 1013.2 hPa 0 mm - 0 W/m² -
1788408615 16.67° C 99% 1013.2 hPa 0 mm - 0 W/m² -
1788407513 16.67° C 99% 1013.6 hPa 0 mm - 0 W/m² -

* Rain latest hour (hover to see other rain measurements)
** Current wind speed in m/s (hover to see current wind gust speed)